Location: *
(51.8167°N, 12.5000°E)
Time: 08:48:29
(UTC+00:00)

Okean 1 Rocket - Pass Details

Date: 16 September 2019
Orbit: 608 x 633 km, 82.5° (Epoch: 17 October)

Event Time Altitude Azimuth Distance (km) Brightness Sun altitude
Rises 18:21:26 0° 174° (S) 2,856 6.2 -9.7°
Reaches altitude 10° 18:23:40 10° 169° (SSE) 1,958 5.4 -10.0°
Maximum altitude 18:27:51 49° 94° (E) 789 3.2 -10.6°
Drops below altitude 10° 18:32:05 10° 20° (NNE) 1,982 5.7 -11.2°
Sets 18:34:22 0° 15° (NNE) 2,896 6.6 -11.6°
